[[{"header":{"parameterUnit":"m.s-1","parameterCategory":1,"la1":30.2991,"la2":30.254,"lo1":-89.0895,"lo2":-89.0444,"dy":0.0017,"dx":0.0017,"nx":28,"ny":28,"refTime":"2024-04-05T21:00:00:Z","depth":0,"parameterNumber":2,"parameterNumberName":"U-component_of_WINDS"},"data":[0,0,0,0,0,0,0,0,0,0,0,0,0,0,0,0,0,0,0,0,0,0,0,0,0,0,0,0,0,0,0,0,0,0,0,0,0,0,0,0,0,0,0,0,0,0,0,0,0,0,0,0,0,0,0,0,0,0,-2.407,-2.4071,0,-2.4114,-2.4115,-2.4115,-2.4085,-2.4084,-2.4082,-2.4081,-2.4127,-2.4129,-2.4132,0,0,0,0,0,0,0,0,0,0,0,0,0,-2.396,-2.3962,-2.407,-2.4071,-2.4071,-2.4114,-2.4115,-2.4115,-2.4085,-2.4084,-2.4082,-2.4081,-2.4126,-2.4129,-2.4132,0,0,0,0,0,0,0,0,0,0,0,0,0,-2.4007,-2.3963,-2.407,-2.4061,-2.4061,-2.4114,-2.4115,-2.4116,-2.4086,-2.4084,-2.4082,-2.408,-2.4125,-2.4129,-2.4132,-2.4197,0,0,-2.4144,-2.4145,0,0,0,0,0,0,0,0,-2.4004,-2.4011,-2.4062,-2.4062,-2.4062,-2.4092,-2.4093,-2.4143,-2.4086,-2.4076,-2.4081,-2.4079,-2.4117,-2.4121,-2.4134,-2.4199,-2.4201,-2.4144,-2.4146,-2.4148,-2.4149,0,0,0,0,0,0,0,-2.4001,-2.4009,-2.4088,-2.4063,-2.4063,-2.4056,-2.406,-2.4102,-2.4108,-2.4077,-2.4075,-2.4081,-2.4117,-2.4131,-2.4135,-2.4201,-2.4144,-2.4147,-2.415,-2.4151,-2.4321,-2.4323,0,0,0,0,0,0,-2.3998,-2.4006,-2.4086,-2.4089,-2.4027,-2.4059,-2.4064,-2.4084,-2.4107,-2.4109,-2.4082,-2.4079,-2.4125,-2.4131,-2.4136,-2.4213,-2.4148,-2.4151,-2.4154,-2.4318,-2.4321,-2.4324,0,0,0,0,0,0,-2.3996,-2.4006,-2.4084,-2.4047,-2.4056,-2.4063,-2.4087,-2.4086,-2.41,-2.4111,-2.4112,-2.4096,-2.4124,-2.4131,-2.4182,-2.4214,-2.4153,-2.4157,-2.4316,-2.4319,-2.4322,-2.4366,0,0,0,0,0,0,-2.3993,-2.4005,-2.4029,-2.4048,-2.4059,-2.4129,-2.4088,-2.4089,-2.4107,-2.4103,-2.4124,-2.4125,-2.4123,-2.4176,-2.4185,-2.4218,-2.4159,-2.4313,-2.4317,-2.4321,-2.4362,-2.437,-2.4378,0,0,0,0,0,-2.3989,-2.404,-2.4031,-2.4041,-2.4089,-2.4131,-2.4137,-2.4133,-2.411,-2.4134,-2.4141,-2.4125,-2.4209,-2.4182,-2.4192,-2.4226,-2.4311,-2.4316,-2.4321,-2.4358,-2.4369,-2.4378,0,0,0,0,0,0,-2.4025,-2.4042,-2.4032,-2.409,-2.4109,-2.4126,-2.4156,-2.4144,-2.4171,-2.4166,-2.416,-2.4165,-2.4218,-2.4227,-2.4196,-2.4289,-2.4256,-2.4264,-2.4281,-2.4291,-2.4299,-2.4296,-2.4163,0,0,0,0,0,-2.404,-2.4072,-2.4086,-2.4136,-2.4146,-2.415,-2.4168,-2.4163,-2.4182,-2.419,-2.4201,-2.4221,-2.4252,-2.4272,-2.4301,-2.4363,-2.4367,-2.4392,-2.44,-2.4406,-2.4413,-2.4446,-2.4457,-2.434,-2.434,-2.434,0,0,-2.4071,-2.4084,-2.4105,-2.4143,-2.4157,-2.4191,-2.4157,-2.4194,-2.4219,-2.4196,-2.4244,-2.4253,-2.4274,-2.4331,-2.4356,-2.434,-2.4446,-2.4413,-2.4418,-2.4421,-2.4452,-2.4463,-2.4473,-2.4344,-2.4343,-2.4343,0,0,-2.4144,-2.4158,-2.4201,-2.4216,-2.4237,-2.424,-2.425,-2.4268,-2.4273,-2.4322,-2.4305,-2.4335,-2.4388,-2.4404,-2.4419,-2.4499,-2.4485,-2.4509,-2.4551,-2.4584,-2.4593,-2.4601,-2.4629,-2.4639,-2.4515,-2.4515,-2.4515,0,-2.418,-2.423,-2.4224,-2.4263,-2.428,-2.4261,-2.4305,-2.432,-2.435,-2.4363,-2.4344,-2.4411,-2.4424,-2.4484,-2.4503,-2.4517,-2.4528,-2.4506,-2.4592,-2.46,-2.4608,-2.4634,-2.4645,-2.4518,-2.4518,-2.4518,-2.4517,0,-2.4272,-2.4307,-2.4339,-2.4369,-2.439,-2.4431,-2.4432,-2.4454,-2.4448,-2.4452,-2.4502,-2.4517,-2.4549,-2.4563,-2.4557,-2.4622,-2.4611,-2.4593,-2.4559,-2.4621,-2.4646,-2.4657,-2.4522,-2.4521,-2.452,-2.452,0,0,-2.4369,-2.4395,-2.4407,-2.442,-2.4443,-2.447,-2.451,-2.4541,-2.456,-2.4582,-2.4615,-2.4661,-2.4644,-2.4661,-2.4657,-2.4686,-2.4748,-2.4664,-2.4664,-2.4679,-2.482,-2.4834,-2.4846,-2.4739,-2.4741,-2.4742,-2.4818,0,-2.4443,-2.4513,-2.4509,-2.4575,-2.4607,-2.459,-2.4625,-2.4642,-2.4648,-2.4676,-2.4682,-2.4714,-2.4689,-2.47,-2.4727,-2.4734,-2.4776,-2.4729,-2.477,-2.4771,-2.4764,-2.4859,-2.4873,-2.4944,-2.4828,-2.483,-2.4831,0,-2.4539,-2.4564,-2.4632,-2.465,-2.4663,-2.4695,-2.4723,-2.475,-2.477,-2.4772,-2.4792,-2.4783,-2.4824,-2.479,-2.4846,-2.4814,-2.483,-2.4837,-2.4839,-2.4842,-2.4804,-2.4864,-2.4966,-2.4977,-2.4846,-2.4845,-2.4844,0,-2.4602,-2.4653,-2.47,-2.4712,-2.4734,-2.4757,-2.4767,-2.4785,-2.4804,-2.4829,-2.4841,-2.487,-2.4886,-2.4909,-2.4908,-2.4884,-2.4965,-2.4931,-2.4968,-2.4968,-2.4985,-2.4984,-2.5091,-2.4997,-2.4997,-2.4996,-2.4996,0,-2.4685,-2.4728,-2.4729,-2.4758,-2.4805,-2.4801,-2.4848,-2.4856,-2.4872,-2.4903,-2.489,-2.4919,-2.4916,-2.4946,-2.4946,-2.4992,-2.4999,-2.5002,-2.5001,-2.5003,-2.5002,-2.5013,-2.5008,-2.4999,-2.4999,-2.4998,-2.4998,0,-2.4764,-2.4766,-2.4817,-2.4834,-2.4839,-2.4873,-2.4887,-2.4915,-2.4919,-2.4958,-2.4967,-2.4973,-2.5007,-2.5009,-2.5048,-2.5048,-2.5104,-2.5099,-2.5098,-2.5096,-2.5132,-2.5129,-2.525,-2.5265,-2.5161,-2.5162,-2.5163,0,-2.4817,-2.4849,-2.4869,-2.4888,-2.49,-2.4931,-2.495,-2.4948,-2.4968,-2.4993,-2.5018,-2.5051,-2.5076,-2.5131,-2.514,-2.517,-2.5164,-2.5204,-2.5168,-2.5169,-2.5164,-2.5162,-2.5165,-2.5211,-2.5212,-2.5213,-2.5214,0,-2.491,-2.4909,-2.4937,-2.4965,-2.4988,-2.5011,-2.5031,-2.5048,-2.5048,-2.5071,-2.5106,-2.5126,-2.5165,-2.5198,-2.5227,-2.5238,-2.5226,-2.5226,-2.5235,-2.5237,-2.5235,-2.5236,-2.5116,-2.5223,-2.5222,-2.5221,-2.5221,-2.522,-2.4977,-2.5004,-2.5023,-2.5054,-2.5069,-2.5089,-2.5116,-2.5123,-2.5152,-2.5183,-2.518,-2.5218,-2.5238,-2.5275,-2.5289,-2.5318,-2.5305,-2.5319,-2.5323,-2.5326,-2.533,-2.5231,-2.5324,-2.5324,-2.5323,-2.5323,-2.5323,0,-2.5069,-2.508,-2.5109,-2.5138,-2.5162,-2.5149,-2.5171,-2.5193,-2.5226,-2.5245,-2.5271,-2.531,-2.5342,-2.5353,-2.5383,-2.5405,-2.54,-2.5413,-2.5411,-2.5414,-2.5341,-2.5329,-2.5416,-2.5416,-2.5416,-2.5416,-2.5416,-2.5416,-2.512,-2.5166,-2.5167,-2.5221,-2.5231,-2.5268,-2.5282,-2.53,-2.5315,-2.536,-2.5386,-2.5392,-2.5408,-2.544,-2.5468,-2.547,-2.5482,-2.5497,-2.5497,-2.5428,-2.5419,-2.541,-2.5399,-2.55,-2.55,-2.5568,-2.5569,-2.5569]},{"header":{"parameterUnit":"m.s-1","parameterCategory":1,"la1":30.2991,"la2":30.254,"lo1":-89.0895,"lo2":-89.0444,"dy":0.0017,"dx":0.0017,"nx":28,"ny":28,"refTime":"2024-04-05T21:00:00:Z","depth":0,"parameterNumber":3,"parameterNumberName":"V-component_of_WINDS"},"data":[0,0,0,0,0,0,0,0,0,0,0,0,0,0,0,0,0,0,0,0,0,0,0,0,0,0,0,0,0,0,0,0,0,0,0,0,0,0,0,0,0,0,0,0,0,0,0,0,0,0,0,0,0,0,0,0,0,0,3.8376,3.8376,0,3.8372,3.8372,3.8372,3.8293,3.8291,3.8289,3.8287,3.8284,3.8285,3.8287,0,0,0,0,0,0,0,0,0,0,0,0,0,3.8315,3.8316,3.8376,3.8376,3.8376,3.8372,3.8372,3.8372,3.8294,3.8291,3.8289,3.8286,3.8283,3.8285,3.8287,0,0,0,0,0,0,0,0,0,0,0,0,0,3.8329,3.8317,3.8376,3.8336,3.8333,3.8372,3.8372,3.8372,3.8294,3.8291,3.8288,3.8285,3.8282,3.8285,3.8288,3.8365,0,0,3.8296,3.8297,0,0,0,0,0,0,0,0,3.8328,3.8331,3.8342,3.8339,3.8335,3.833,3.8349,3.837,3.8295,3.8309,3.8287,3.8284,3.8302,3.8302,3.8308,3.8365,3.8364,3.8296,3.8298,3.8299,3.83,0,0,0,0,0,0,0,3.8327,3.8331,3.8374,3.8342,3.8338,3.8318,3.8317,3.8352,3.8322,3.8307,3.8302,3.8302,3.8299,3.8306,3.8308,3.8364,3.8296,3.8298,3.83,3.8301,3.8482,3.8485,0,0,0,0,0,0,3.8332,3.8331,3.8374,3.8374,3.8324,3.8322,3.832,3.8335,3.8322,3.8317,3.8305,3.8299,3.8303,3.8305,3.8307,3.8395,3.8299,3.8301,3.8303,3.8479,3.8483,3.8486,0,0,0,0,0,0,3.8331,3.8337,3.8374,3.8351,3.8354,3.8326,3.8343,3.8336,3.8343,3.832,3.8314,3.8317,3.8301,3.8304,3.8351,3.8394,3.8302,3.8305,3.8475,3.848,3.8484,3.8572,0,0,0,0,0,0,3.833,3.8337,3.8366,3.8352,3.8356,3.8418,3.8345,3.8338,3.8348,3.834,3.833,3.8326,3.8298,3.8347,3.8353,3.8396,3.8307,3.8471,3.8477,3.8483,3.8565,3.8579,3.8592,0,0,0,0,0,3.8328,3.8391,3.8368,3.8373,3.8392,3.8421,3.8423,3.839,3.8352,3.838,3.8365,3.8326,3.8389,3.8353,3.8359,3.8403,3.8468,3.8475,3.8482,3.8559,3.8577,3.8591,0,0,0,0,0,0,3.8411,3.8389,3.8362,3.8424,3.8425,3.8408,3.8443,3.841,3.8422,3.8414,3.8373,3.8372,3.8425,3.8419,3.8379,3.8476,3.8421,3.843,3.8478,3.8494,3.8507,3.8506,3.8309,0,0,0,0,0,3.8437,3.8462,3.8441,3.8497,3.8499,3.8471,3.8483,3.8458,3.8457,3.8457,3.8446,3.8447,3.8466,3.848,3.8497,3.8565,3.8561,3.8598,3.8611,3.8622,3.863,3.8663,3.8679,3.851,3.851,3.851,0,0,3.849,3.8481,3.8499,3.8514,3.8512,3.8538,3.8472,3.8504,3.8523,3.8462,3.8505,3.8497,3.8495,3.8553,3.8577,3.8549,3.8676,3.8631,3.864,3.8642,3.8672,3.8688,3.8703,3.8515,3.8514,3.8513,0,0,3.8599,3.8596,3.8641,3.864,3.8637,3.8618,3.8629,3.8617,3.8609,3.8652,3.8606,3.8629,3.8664,3.8664,3.8669,3.8779,3.8742,3.8786,3.8853,3.8886,3.89,3.8911,3.8948,3.8963,3.8794,3.8794,3.8794,0,3.8665,3.8704,3.8668,3.8702,3.871,3.8656,3.87,3.8702,3.8705,3.8711,3.868,3.8722,3.8718,3.8773,3.88,3.8806,3.8817,3.8785,3.8901,3.8912,3.8922,3.8957,3.8972,3.8799,3.8798,3.8798,3.8797,0,3.8784,3.8811,3.8848,3.8852,3.8864,3.8903,3.8873,3.889,3.8864,3.8848,3.8892,3.8884,3.8898,3.891,3.8885,3.8962,3.8944,3.8908,3.8851,3.8944,3.8976,3.8989,3.8806,3.8804,3.8803,3.8802,0,0,3.8945,3.8928,3.8942,3.8942,3.8936,3.8956,3.8993,3.9006,3.902,3.9025,3.9054,3.9085,3.905,3.9056,3.9031,3.9061,3.9145,3.902,3.9019,3.9042,3.9227,3.9253,3.927,3.9122,3.9125,3.9127,3.9227,0,3.9049,3.911,3.9079,3.9144,3.9168,3.9117,3.9149,3.9149,3.9135,3.9153,3.9139,3.916,3.9115,3.9117,3.9145,3.913,3.9182,3.9122,3.9148,3.9149,3.9147,3.9287,3.9314,3.9409,3.9239,3.9242,3.9243,0,3.9178,3.9187,3.9254,3.9241,3.925,3.928,3.9288,3.9307,3.9305,3.9293,3.9299,3.9267,3.9302,3.9248,3.9295,3.9255,3.9264,3.9258,3.9261,3.926,3.92,3.9288,3.9439,3.9452,3.9263,3.9261,3.926,0,3.9286,3.9315,3.9358,3.9361,3.9348,3.9369,3.9365,3.936,3.9369,3.9377,3.9383,3.9396,3.9402,3.9412,3.9384,3.9348,3.9435,3.9379,3.9424,3.9425,3.9443,3.9442,3.9596,3.9453,3.9453,3.9453,3.9452,0,3.9404,3.9447,3.9406,3.9433,3.9479,3.9443,3.949,3.948,3.9476,3.9499,3.9457,3.948,3.9443,3.9462,3.9441,3.9482,3.9486,3.9476,3.947,3.9479,3.948,3.9483,3.9475,3.9456,3.9456,3.9455,3.9454,0,3.9531,3.9506,3.955,3.9534,3.9531,3.9565,3.9551,3.9575,3.9559,3.9589,3.9594,3.9569,3.9589,3.9562,3.9581,3.9566,3.9622,3.9607,3.9622,3.9617,3.9664,3.9659,3.9823,3.9842,3.9689,3.969,3.9692,0,3.9607,3.9639,3.9626,3.9638,3.9636,3.9657,3.9666,3.9632,3.9644,3.9643,3.9667,3.9684,3.9695,3.973,3.9713,3.9727,3.971,3.9766,3.9712,3.9719,3.9708,3.9706,3.9708,3.9777,3.9779,3.978,3.9782,0,3.9744,3.973,3.9744,3.9755,3.9767,3.9773,3.9777,3.979,3.9754,3.9769,3.9789,3.9798,3.9816,3.9833,3.9842,3.9837,3.9803,3.9799,3.981,3.9819,3.9826,3.9821,3.965,3.9795,3.9794,3.9793,3.9792,3.9792,3.9846,3.9871,3.9866,3.9883,3.9882,3.9886,3.9907,3.9893,3.9909,3.992,3.99,3.9925,3.9921,3.9929,3.9929,3.9948,3.9923,3.994,3.9943,3.9947,3.9954,3.9825,3.995,3.9949,3.9949,3.9948,3.9948,0,3.9979,3.9973,3.9989,3.9995,4.0008,3.9976,3.9978,3.9991,4.0013,4.0013,4.0025,4.0047,4.0063,4.0048,4.006,4.0079,4.0063,4.0083,4.008,4.0079,3.9976,3.9964,4.0095,4.0095,4.0095,4.0095,4.0095,4.0095,4.005,4.0089,4.0074,4.0113,4.0106,4.013,4.0133,4.0137,4.0136,4.0162,4.0175,4.0165,4.0158,4.017,4.0183,4.0178,4.0184,4.0209,4.0198,4.0101,4.0087,4.0073,4.0062,4.0211,4.0211,4.03,4.0301,4.0301]}]]